Tracking 31027 objects as of 19-Jul-2025
HD Live streaming from Space Station
objects crossing your sky now

STARLINK-1777

Track STARLINK-1777 now!
10-day predictions
STARLINK-1777 is classified as:


NORAD ID: 47122
Int'l Code: 2020-088A
Perigee: 553.5 km
Apogee: 555.2 km
Inclination: 53.1 °
Period: 95.6 minutes
Semi major axis: 6925 km
RCS: Unknown
Launch date: November 25, 2020
Source: United States (US)
Launch site: AIR FORCE EASTERN TEST RANGE (AFETR)
Your satellite tracking list
SES-6
Track 1 satellite(s)




NASA's NSSDC Master Catalog

Two Line Element Set (TLE):
1 47122U 20088A   25199.47688089  .00003272  00000-0  23848-3 0  9992
2 47122  53.0537 273.0450 0001231  88.3508 271.7622 15.06400036256837
Source of the keplerian elements: AFSPC